Location: Santiago
(33.4378°S, 70.6505°W)
Time: 15:11:22
(UTC+00:00)

ISS - Pass Details

Date: 09 July 2025
Orbit: 413 x 417 km, 51.6° (Epoch: 13 July)

Event Time Altitude Azimuth Distance (km) Brightness Sun altitude
Rises 11:21:23 0° 360° (N) 2,349 0.4 -5.6°
Reaches altitude 10° 11:24:44 10° 36° (NE) 1,497 0.1 -4.9°
Maximum altitude 11:25:48 11° 55° (NE) 1,429 0.6 -4.7°
Drops below altitude 10° 11:26:53 10° 73° (ENE) 1,504 0.9 -4.5°
Sets 11:30:16 0° 109° (ESE) 2,378 0.9 -3.9°
